LUCH-5X (OLYMP-K 2)

Last updated on Tue Oct 21 2025 00:02:55 GMT+0000 (Coordinated Universal Time)

1 55841U 23031A 25293.52792833 .00000035 00000+0 00000+0 0 9998 2 55841 0.0295 90.5262 0001150 290.5301 260.2589 1.00276058 9530
UTC large
Height (km)
Speed (km/s)
/
Latitude / Longitude
Inclination (degrees)
Orbital Period (minutes)
Azimuth
Elevation
Range (km)
Doppler Factor

Next 0 passes for location: London (51.5072 / 0.1276)

Sorry there are no passes over London.